Date String (YYYY-MM-DD hh:mm:ss) UTC,Instrument flags,absolute air pressure of the measurement (hPa),sample flow rate (lpm),inlet stack bypass flow (lpm),air temperature of the measurement (°C),ambient temperature measured by the external sensor (°C),aerosol sample conditioner tube jacket temperature (°C),OPC LED temperature (°C),internal box temperature (°C),relative humidity of the measurement (%),span deviation,mass concentration of particles derived from Lorenz-Mie calculation of OPC scattering (μg/m³),mass concentration of particles derived from Lorenz-Mie calculation of OPC scattering (μg/m³),mass concentration of particles derived from Lorenz-Mie calculation of OPC scattering (μg/m³)
DateTimeUTC,F1_M11,P_M11,Q1_M11,Q2_M11,T1_M11,T2_M11,T3_M11,T4_M11,T5_M11,U1_M11,ZSPAN_M11,X2_M11,X0_M11,X1_M11
2024-04-27 23:00:00,SystemResetWarning,0824.5,4.99,000.00,021.8,021.2,000.0,030.3,023.6,027.4,0000.0,0001.24,0002.27,0001.05
2024-04-27 23:01:00,SystemResetWarning,0824.5,5.00,000.00,021.8,021.2,000.0,030.3,023.6,026.9,0000.0,0001.26,0002.32,0001.06
2024-04-27 23:02:00,SystemResetWarning,0824.5,5.00,000.00,021.8,021.2,000.0,030.3,023.6,026.7,0000.0,0001.25,0002.32,0001.06
2024-04-27 23:03:00,SystemResetWarning,0824.5,5.01,000.00,021.8,021.2,000.0,030.3,023.6,026.6,0000.0,0001.26,0002.33,0001.05
2024-04-27 23:04:00,SystemResetWarning,0824.6,5.01,000.00,021.8,021.2,000.0,030.3,023.6,026.8,0000.0,0001.24,0002.29,0001.05
2024-04-27 23:05:00,SystemResetWarning,0824.7,5.00,000.00,021.8,021.2,000.0,030.3,023.6,026.6,0000.0,0001.20,0001.90,0001.05
2024-04-27 23:06:00,SystemResetWarning,0824.7,4.99,000.00,021.8,021.2,000.0,030.3,023.6,026.6,0000.0,0001.19,0001.61,0001.05
2024-04-27 23:07:00,SystemResetWarning,0824.7,4.99,000.00,021.8,021.2,000.0,030.3,023.7,026.4,0000.0,0001.19,0001.58,0001.06
2024-04-27 23:08:00,SystemResetWarning,0824.7,5.02,000.00,021.8,021.2,000.0,030.3,023.7,026.9,0000.0,0001.19,0001.50,0001.07
2024-04-27 23:09:00,SystemResetWarning,0824.7,5.01,000.00,021.8,021.2,000.0,030.3,023.7,027.1,0000.0,0001.19,0001.50,0001.07
2024-04-27 23:10:00,SystemResetWarning,0824.7,4.99,000.00,021.8,021.2,000.0,030.3,023.7,027.0,0000.0,0001.19,0001.48,0001.08
2024-04-27 23:11:00,SystemResetWarning,0824.7,4.99,000.00,021.9,021.2,000.0,030.3,023.7,027.3,0000.0,0001.18,0001.41,0001.10
2024-04-27 23:12:00,SystemResetWarning,0824.7,4.99,000.00,021.9,021.3,000.0,030.3,023.7,027.1,0000.0,0001.19,0001.39,0001.12
2024-04-27 23:13:00,SystemResetWarning,0824.7,5.02,000.00,021.9,021.2,000.0,030.3,023.7,027.0,0000.0,0001.23,0001.44,0001.16
2024-04-27 23:14:00,SystemResetWarning,0824.7,4.99,000.00,021.9,021.2,000.0,030.3,023.7,026.9,0000.0,0001.27,0001.48,0001.19
2024-04-27 23:15:00,SystemResetWarning,0824.7,4.98,000.00,021.9,021.2,000.0,030.3,023.7,026.6,0000.0,0001.29,0001.50,0001.21
2024-04-27 23:16:00,SystemResetWarning,0824.7,5.01,000.00,021.9,021.2,000.0,030.3,023.7,026.9,0000.0,0001.32,0001.54,0001.24
2024-04-27 23:17:00,SystemResetWarning,0824.7,5.00,000.00,021.9,021.2,000.0,030.3,023.7,027.2,0000.0,0001.34,0001.57,0001.26
2024-04-27 23:18:00,SystemResetWarning,0824.7,5.01,000.00,021.9,021.2,000.0,030.3,023.7,026.5,0000.0,0001.35,0001.63,0001.26
2024-04-27 23:19:00,SystemResetWarning,0824.7,5.00,000.00,021.9,021.2,000.0,030.3,023.7,026.4,0000.0,0001.34,0001.60,0001.25
2024-04-27 23:20:00,SystemResetWarning,0824.8,4.98,000.00,021.9,021.2,000.0,030.3,023.7,026.5,0000.0,0001.35,0001.64,0001.26
2024-04-27 23:21:00,SystemResetWarning,0824.8,4.99,000.00,021.9,021.2,000.0,030.3,023.7,026.7,0000.0,0001.37,0001.66,0001.28
2024-04-27 23:22:00,SystemResetWarning,0824.7,5.01,000.00,021.9,021.2,000.0,030.4,023.7,026.9,0000.0,0001.41,0001.71,0001.32
2024-04-27 23:23:00,SystemResetWarning,0824.8,5.01,000.00,021.9,021.2,000.0,030.4,023.7,027.1,0000.0,0001.46,0002.68,0001.36
2024-04-27 23:24:00,SystemResetWarning,0824.7,5.00,000.00,021.9,021.2,000.0,030.4,023.7,027.4,0000.0,0001.52,0002.91,0001.39
2024-04-27 23:25:00,SystemResetWarning,0824.7,4.99,000.00,021.9,021.2,000.0,030.4,023.7,027.4,0000.0,0001.56,0002.97,0001.42
2024-04-27 23:26:00,SystemResetWarning,0824.8,4.99,000.00,021.9,021.2,000.0,030.4,023.7,027.3,0000.0,0001.61,0003.01,0001.47
2024-04-27 23:27:00,SystemResetWarning,0824.8,5.01,000.00,021.9,021.2,000.0,030.4,023.7,027.4,0000.0,0001.66,0003.05,0001.53
2024-04-27 23:28:00,SystemResetWarning,0824.8,5.01,000.00,021.9,021.2,000.0,030.4,023.7,027.6,0000.0,0001.71,0003.08,0001.58
2024-04-27 23:29:00,SystemResetWarning,0824.8,4.99,000.00,021.9,021.2,000.0,030.4,023.7,027.9,0000.0,0001.76,0003.13,0001.62
2024-04-27 23:30:00,SystemResetWarning,0824.8,4.99,000.00,021.9,021.2,000.0,030.4,023.7,028.5,0000.0,0001.84,0003.16,0001.70
2024-04-27 23:31:00,SystemResetWarning,0824.8,5.00,000.00,021.9,021.2,000.0,030.4,023.7,028.1,0000.0,0001.93,0003.27,0001.78
2024-04-27 23:32:00,SystemResetWarning,0824.8,5.01,000.00,021.9,021.2,000.0,030.4,023.7,027.7,0000.0,0001.97,0003.21,0001.84
2024-04-27 23:33:00,SystemResetWarning,0824.8,5.01,000.00,021.9,021.2,000.0,030.4,023.7,027.8,0000.0,0002.02,0003.24,0001.88
2024-04-27 23:34:00,SystemResetWarning,0824.8,5.00,000.00,021.9,021.2,000.0,030.4,023.7,027.8,0000.0,0002.03,0003.04,0001.90
2024-04-27 23:35:00,SystemResetWarning,0824.8,4.99,000.00,021.9,021.2,000.0,030.4,023.7,028.0,0000.0,0002.02,0002.26,0001.91
2024-04-27 23:36:00,SystemResetWarning,0824.8,4.99,000.00,021.9,021.2,000.0,030.4,023.7,027.8,0000.0,0001.99,0002.10,0001.91
2024-04-27 23:37:00,SystemResetWarning,0824.8,4.99,000.00,021.9,021.2,000.0,030.4,023.7,027.8,0000.0,0001.98,0002.07,0001.90
2024-04-27 23:38:00,SystemResetWarning,0824.8,5.01,000.00,021.9,021.2,000.0,030.4,023.7,027.8,0000.0,0001.96,0002.05,0001.88
2024-04-27 23:39:00,SystemResetWarning,0824.8,5.00,000.00,021.9,021.2,000.0,030.4,023.7,027.6,0000.0,0001.95,0002.08,0001.86
2024-04-27 23:40:00,SystemResetWarning,0824.8,5.00,000.00,021.9,021.2,000.0,030.4,023.7,027.6,0000.0,0001.93,0002.05,0001.83
2024-04-27 23:41:00,SystemResetWarning,0824.9,4.99,000.00,021.9,021.2,000.0,030.4,023.7,027.6,0000.0,0001.89,0002.04,0001.81
2024-04-27 23:42:00,SystemResetWarning,0824.9,5.00,000.00,021.9,021.2,000.0,030.4,023.7,027.8,0000.0,0001.87,0002.14,0001.78
2024-04-27 23:43:00,SystemResetWarning,0824.9,5.00,000.00,021.9,021.2,000.0,030.4,023.7,027.9,0000.0,0001.86,0002.17,0001.75
2024-04-27 23:44:00,SystemResetWarning,0824.9,4.99,000.00,021.9,021.2,000.0,030.4,023.7,028.0,0000.0,0001.86,0002.19,0001.74
2024-04-27 23:45:00,SystemResetWarning,0824.9,5.00,000.00,021.9,021.2,000.0,030.4,023.7,027.9,0000.0,0001.89,0002.26,0001.74
2024-04-27 23:46:00,SystemResetWarning,0824.9,5.00,000.00,021.9,021.2,000.0,030.4,023.7,027.7,0000.0,0001.89,0002.26,0001.74
2024-04-27 23:47:00,SystemResetWarning,0824.9,5.01,000.00,021.9,021.2,000.0,030.4,023.7,027.5,0000.0,0001.92,0002.32,0001.75
2024-04-27 23:48:00,SystemResetWarning,0824.9,5.01,000.00,021.9,021.2,000.0,030.4,023.7,027.3,0000.0,0001.93,0002.34,0001.76
2024-04-27 23:49:00,SystemResetWarning,0824.9,5.00,000.00,021.9,021.2,000.0,030.4,023.7,027.2,0000.0,0001.97,0002.39,0001.78
2024-04-27 23:50:00,SystemResetWarning,0824.9,4.99,000.00,021.9,021.2,000.0,030.4,023.7,027.2,0000.0,0001.98,0002.36,0001.80
2024-04-27 23:51:00,SystemResetWarning,0824.9,4.99,000.00,021.9,021.3,000.0,030.4,023.7,027.5,0000.0,0001.98,0002.35,0001.81
2024-04-27 23:52:00,SystemResetWarning,0824.9,5.00,000.00,021.9,021.3,000.0,030.4,023.7,027.5,0000.0,0001.98,0002.34,0001.81
2024-04-27 23:53:00,SystemResetWarning,0824.9,5.01,000.00,021.9,021.2,000.0,030.4,023.7,027.4,0000.0,0001.98,0002.26,0001.81
2024-04-27 23:54:00,SystemResetWarning,0824.9,5.00,000.00,021.9,021.3,000.0,030.4,023.7,027.4,0000.0,0001.99,0002.36,0001.81
2024-04-27 23:55:00,SystemResetWarning,0824.9,5.01,000.00,021.9,021.3,000.0,030.4,023.7,027.4,0000.0,0001.98,0002.44,0001.80
2024-04-27 23:56:00,SystemResetWarning,0824.9,4.99,000.00,021.9,021.3,000.0,030.4,023.7,027.3,0000.0,0001.96,0002.38,0001.80
2024-04-27 23:57:00,SystemResetWarning,0824.9,4.99,000.00,021.9,021.3,000.0,030.4,023.7,027.4,0000.0,0001.95,0002.36,0001.80
2024-04-27 23:58:00,SystemResetWarning,0824.9,4.99,000.00,021.9,021.3,000.0,030.4,023.7,027.4,0000.0,0001.93,0002.31,0001.78
2024-04-27 23:59:00,SystemResetWarning,0824.9,4.99,000.00,021.9,021.3,000.0,030.4,023.7,027.2,0000.0,0001.94,0002.34,0001.77
